EHI
0 0 0 0 0 0 0 0 0 0 0 0 0 0 0 0 0 0 0 0 0 0 0 0 0 0 0 0 0 0 0 0 0 0 0 0 0 0 0 0 0 0 0
0 0 0 0 0 0 0 0 0 0 0 0 0 0 0 0 0 0 0 0 0 0 0 0 0 0 0 0 0 0 0 0 0 0 0 0 0 0 0 0 0 0 0
0 0 0 0 0 0 0 0 0 0 0 0 0 0 0 0 0 0 0 0 0 0 0 0 0 0 0 0 0 0 0 0 0 0 0 0 0 0 0 0 0 0 0
0 0 0 0 0 0 0 0 0 0 0 0 0 0 0 0 0 0 0 0 0 0 0 0 0 0 0 0 0 0 0 0 0 0 0 0 0 0 0 0 0 0 0
1 1 1 0 0 0 0 0 0 0 0 0 0 0 0 0 0 0 0 0 0 0 0 0 0 0 0 0 0 0 0 0 0 0 0 0 0 0 0 0 0 0 0
2 2 2 1 0 0 0 0 0 0 0 0 0 0 0 0 0 0 0 0 0 0 0 0 0 0 0 0 0 0 0 0 0 0 0 0 0 0 0 0 0 0 0
1 2 2 1 0 0 0 0 0 0 0 0 0 0 0 0 0 0 0 0 0 0 0 0 0 0 0 0 0 0 0 0 0 0 0 0 0 0 0 0 0 0 0
1 2 3 2 1 0 0 0 0 0 0 0 0 0 0 0 0 0 0 0 0 0 0 0 0 0 0 0 0 0 0 0 0 0 0 0 0 0 0 0 0 0 0
1 2 3 3 2 1 0 0 0 0 0 0 0 0 0 0 0 0 0 0 0 0 0 0 0 0 0 0 0 0 0 0 0 0 0 0 0 0 0 0 0 0 0
0 1 3 3 2 1 0 0 0 0 0 0 0 0 0 0 0 0 0 0 0 0 0 0 0 0 0 0 0 0 0 0 0 0 0 0 0 0 0 0 0 0 0
0 1 2 3 2 1 0 0 0 0 0 0 0 0 0 0 0 0 0 0 0 0 0 0 0 0 0 0 0 0 0 0 0 0 0 0 0 0 0 0 0 0 0
0 0 1 1 2 1 0 0 0 0 0 0 0 0 0 0 0 0 0 0 0 0 0 0 0 0 0 0 0 0 0 0 0 0 0 0 0 0 0 0 0 0 0
0 0 0 1 1 1 0 0 0 0 0 0 0 0 0 0 0 0 0 0 0 0 0 0 0 0 0 0 0 0 0 0 0 0 0 0 0 0 0 0 0 0 0
0 0 0 0 1 2 1 0 0 0 0 0 0 0 0 0 0 0 0 0 0 0 0 0 0 0 0 0 0 0 0 0 0 0 0 0 0 0 0 0 0 0 0
0 0 0 1 2 2 1 0 0 0 0 0 0 0 0 0 0 0 0 0 0 0 0 0 0 0 0 0 0 0 0 0 0 0 0 0 0 0 0 0 0 0 0
0 0 0 1 1 1 0 0 0 0 0 0 0 0 0 0 0 0 0 0 0 0 0 0 0 0 0 0 0 0 0 0 0 0 0 0 0 0 0 0 0 0 0
0 0 0 0 0 0 0 0 0 0 0 0 0 0 0 0 0 0 0 0 0 0 0 0 0 0 0 0 0 0 0 0 0 0 0 0 0 0 0 0 0 0 0
0 0 0 0 0 0 0 0 0 0 0 0 0 0 0 0 0 0 0 0 0 0 0 0 0 0 0 0 0 0 0 0 0 0 0 0 0 0 0 0 0 0 0
0 0 0 0 0 0 0 0 0 0 0 0 0 0 0 0 0 0 0 0 0 0 0 0 0 0 0 0 0 0 0 0 0 0 0 0 0 0 0 0 0 0 0
0 0 0 0 0 0 0 0 0 0 0 0 0 0 0 0 0 0 0 0 0 0 0 0 0 0 0 0 0 0 0 0 0 0 0 0 0 0 0 0 0 0 0
0 0 0 0 0 0 0 0 0 0 0 0 0 0 0 0 0 0 0 0 0 0 0 0 0 0 0 0 0 0 0 0 0 0 0 0 0 0 0 0 0 0 0
0 0 0 0 0 0 0 0 0 0 0 0 0 0 0 0 0 0 0 0 0 0 0 0 0 0 0 0 0 0 0 0 0 0 0 0 0 0 0 0 0 0 0
0 0 0 0 0 0 0 0 0 0 0 0 0 0 0 0 0 0 0 0 0 0 0 0 0 0 0 0 0 0 0 0 0 0 0 0 0 0 0 0 0 0 0
0 0 0 0 0 0 0 0 0 0 0 0 0 0 0 0 0 0 0 0 0 0 0 0 0 0 0 0 0 0 0 0 0 0 0 0 0 0 0 0 0 0 0
0 0 0 0 0 0 0 0 0 0 0 0 0 0 0 0 0 0 0 0 0 0 0 0 0 0 0 0 0 0 0 0 0 0 0 0 0 0 0 0 0 0 0
0 0 0 0 0 0 0 0 0 0 0 0 0 0 0 0 0 0 0 0 0 0 0 0 0 0 0 0 0 0 0 0 0 0 0 0 0 0 0 0 0 0 0
Wind_Speed
3 3 3 3 3 3 3 3 3 3 3 3 3 3 3 3 3 3 3 3 3 2 2 2 2 2 2 2 2 2 2 2 2 1 1 1 0 0 1 1 1 1 1
2 2 2 2 3 3 3 4 3 3 3 3 3 3 3 3 3 4 3 3 3 3 3 3 3 2 2 2 2 3 2 3 3 2 1 0 1 1 0 1 1 0 0
2 2 2 2 3 4 4 4 3 3 3 3 3 3 4 3 4 4 4 4 4 4 4 4 4 3 3 3 3 3 2 2 2 3 1 1 0 0 1 1 1 1 1
2 2 2 2 3 3 3 3 3 3 3 3 4 4 4 4 4 4 4 4 4 4 4 4 4 5 5 5 4 4 3 3 2 2 1 1 1 0 1 0 1 1 1
2 2 2 2 1 2 2 2 2 3 3 3 3 3 3 3 4 4 4 4 4 3 3 3 4 5 6 5 4 5 5 4 3 2 2 1 1 1 2 2 1 0 1
2 2 2 1 1 1 2 2 2 2 2 2 3 3 3 4 6 7 5 4 4 4 3 3 3 4 6 7 7 7 8 6 6 4 3 3 4 3 2 2 2 1 2
2 2 1 1 1 1 1 1 2 3 2 3 3 3 4 4 6 6 7 4 4 4 4 3 3 3 4 3 5 6 7 9 9 6 6 6 5 5 5 3 3 3 3
1 1 1 1 1 1 1 1 2 2 2 2 3 3 3 4 6 6 6 4 3 4 4 5 4 4 4 4 3 3 3 5 7 5 6 6 6 5 6 6 5 2 0
1 2 2 2 2 2 2 3 2 1 1 2 2 3 3 4 5 5 4 2 2 3 4 4 4 4 6 6 5 4 3 3 5 6 6 6 6 7 7 4 4 3 2
2 3 2 2 2 3 4 3 2 2 2 2 2 2 3 4 4 4 4 2 2 2 2 3 5 6 6 6 5 5 5 4 3 3 4 4 4 5 9 7 6 4 2
3 2 1 1 2 3 2 2 2 2 1 1 2 2 3 4 4 5 5 3 4 3 2 2 3 6 6 7 6 5 7 4 3 3 2 2 1 2 4 4 5 5 5
1 1 1 1 2 1 1 1 1 1 2 1 1 2 2 3 4 4 5 5 5 4 3 3 3 5 6 6 5 5 6 3 2 2 2 2 3 3 4 4 5 5 5
1 1 2 2 1 1 1 1 1 1 1 2 2 2 3 2 3 5 5 5 5 3 3 4 4 5 4 4 5 5 3 2 2 2 3 4 3 3 2 2 3 3 3
1 2 2 1 1 1 1 1 1 1 2 2 2 3 3 2 2 2 2 2 3 3 2 2 3 3 2 2 2 2 2 3 3 3 3 2 1 1 2 2 3 2 2
1 2 2 1 1 2 2 2 2 3 3 3 3 3 2 3 4 4 3 2 3 3 2 1 1 1 1 1 1 1 1 2 2 2 2 2 2 2 2 2 2 2 3
1 1 1 1 1 1 1 2 3 3 3 3 3 3 3 4 4 4 5 4 4 4 3 2 2 3 3 3 3 2 2 3 3 3 3 3 3 3 3 2 2 3 4
2 2 1 1 1 1 1 1 3 3 3 3 4 4 4 4 4 4 4 4 3 4 2 3 3 4 4 4 3 4 4 4 3 3 4 4 3 3 3 3 3 3 4
2 2 2 2 2 2 2 2 2 2 3 3 3 5 5 5 4 4 3 1 1 2 3 4 4 4 4 4 4 4 4 3 3 4 4 4 4 4 4 4 4 5 5
1 1 2 1 1 1 1 1 2 2 2 3 3 3 4 4 3 3 2 2 3 3 3 3 4 4 4 4 4 4 4 4 4 4 4 4 4 4 4 4 4 6 5
1 3 2 1 1 1 1 1 2 2 2 3 3 3 3 1 1 2 2 2 3 3 3 4 4 4 4 4 4 3 4 4 4 4 4 4 4 4 5 5 5 4 5
1 2 3 2 2 2 2 2 2 2 2 3 3 3 3 2 3 3 3 3 3 4 4 4 3 3 3 3 3 3 4 4 4 4 4 4 5 5 5 5 5 5 5
1 1 2 2 2 2 2 2 2 2 3 3 3 3 4 3 2 3 3 3 3 3 3 3 3 3 3 3 3 3 4 4 4 4 4 4 4 5 5 5 5 5 5
1 2 2 2 2 2 2 2 2 2 3 3 3 3 2 2 2 2 3 3 3 3 3 3 3 3 3 3 3 4 4 5 4 4 5 4 4 5 5 5 6 6 6
2 2 2 2 2 2 2 3 3 3 3 3 3 3 3 3 3 3 3 3 3 3 3 3 3 4 5 4 3 3 4 4 3 4 5 5 5 5 5 5 6 6 6
2 2 2 3 3 3 3 3 3 3 3 3 3 3 3 3 3 3 3 3 3 3 4 4 3 4 5 6 5 5 6 6 5 3 4 4 5 5 5 6 5 5 6
2 2 3 3 3 3 3 4 4 4 4 4 4 4 4 4 4 4 3 3 3 3 3 3 4 4 5 5 6 7 7 7 7 6 3 3 5 5 5 5 6 6 6
Wind_Direction
185 199 196 197 202 197 198 209 209 201 197 197 196 187 190 193 189 183 189 182 186 200 192 183 204 178 170 170 156 153 161 153 172 256 268 312 318 6 21 25 13 353 356
191 189 203 205 201 202 212 215 207 202 201 201 194 191 199 196 187 184 193 188 193 204 207 194 212 184 186 178 170 178 182 177 162 187 233 253 250 252 335 5 354 354 314
171 172 193 208 208 214 222 220 210 203 202 199 193 200 206 200 192 197 196 195 199 206 204 203 210 186 200 193 184 186 188 176 158 161 191 198 248 355 48 10 7 357 313
156 162 193 222 225 223 219 215 210 201 200 207 209 212 208 199 197 201 199 202 205 209 209 208 204 197 204 195 190 190 177 164 155 155 165 183 197 235 124 153 352 346 316
166 184 224 236 236 231 221 218 213 210 217 212 209 218 212 202 208 202 197 199 203 213 218 217 214 210 208 196 189 184 174 171 166 167 179 172 197 192 208 193 190 302 311
191 210 221 216 217 240 237 218 209 215 221 210 213 216 219 227 225 210 197 195 199 205 217 225 228 223 224 215 208 192 182 179 182 182 190 200 216 207 179 175 161 146 272
215 226 210 205 219 232 249 237 230 222 209 216 220 213 223 238 231 219 210 193 196 206 209 213 229 223 212 207 216 213 207 207 197 183 188 207 206 200 175 174 184 187 214
276 289 272 238 247 248 222 234 243 230 216 223 229 221 224 244 239 230 218 199 201 211 211 209 214 225 209 187 179 190 211 219 217 208 206 214 208 193 185 185 182 171 250
273 273 270 247 241 239 237 243 241 222 235 231 230 223 228 253 245 229 207 187 204 224 226 218 215 220 216 191 169 184 219 247 235 221 227 227 216 198 176 145 150 159 218
271 267 264 246 235 233 233 235 231 216 227 234 246 238 231 245 248 231 208 184 201 223 231 231 230 225 219 200 186 185 211 235 218 219 230 236 219 202 191 182 178 179 186
283 282 292 272 252 247 244 239 213 202 207 225 248 263 255 252 253 238 215 194 202 208 222 235 236 230 223 216 205 202 220 219 195 198 207 213 199 196 201 198 192 187 192
296 294 289 283 273 285 255 260 229 183 191 224 256 283 279 271 260 248 231 219 203 194 218 227 229 225 222 221 218 225 223 207 173 179 196 212 213 216 215 207 206 208 213
312 296 285 286 283 260 229 227 233 202 208 231 230 255 275 279 268 257 244 233 218 205 216 220 223 219 214 216 219 215 201 178 173 191 215 228 226 220 203 201 210 211 227
268 277 279 269 290 297 267 229 218 222 234 244 241 248 261 269 267 265 253 233 222 222 229 227 230 224 218 221 217 213 205 196 195 209 221 233 221 197 207 201 203 198 214
257 278 283 274 272 288 293 263 241 234 225 227 238 232 237 260 264 250 224 216 203 199 178 156 162 168 184 209 212 206 200 200 212 214 213 218 213 211 223 208 202 197 210
257 278 271 263 265 268 280 310 298 270 276 269 261 246 246 250 271 259 246 241 227 199 170 179 205 207 209 211 213 221 218 216 218 213 213 215 216 217 220 209 201 204 221
236 254 261 264 256 254 256 263 295 313 293 278 280 279 274 276 268 260 254 240 217 183 189 209 216 217 219 216 214 216 223 222 213 211 216 217 216 216 215 215 215 222 231
249 265 266 254 252 249 250 257 263 281 306 310 292 278 275 272 264 260 252 217 213 198 208 218 225 224 220 220 221 224 226 219 211 215 218 219 214 214 220 222 219 221 230
243 256 252 244 247 249 255 258 264 270 276 291 309 305 286 271 265 255 215 217 225 229 227 229 231 228 225 223 224 223 220 218 216 212 215 216 213 214 223 227 227 231 232
251 267 269 249 239 242 245 253 262 267 271 274 282 296 303 279 265 259 241 232 232 240 237 234 235 232 229 227 226 222 220 221 217 217 217 217 216 215 223 226 228 231 232
257 269 278 274 254 248 245 253 263 263 268 272 273 279 285 261 253 250 249 247 243 243 241 236 231 230 230 224 223 224 223 227 223 221 221 221 218 221 225 226 229 234 238
241 252 254 255 259 263 263 258 261 265 268 274 283 285 282 267 266 257 253 253 253 254 249 238 233 228 223 218 217 220 227 233 231 226 226 226 226 227 225 227 230 234 237
241 249 259 264 262 269 270 267 265 270 272 271 275 278 279 273 265 269 268 260 255 256 253 247 248 249 242 231 224 219 222 230 232 228 227 228 229 230 228 229 233 237 240
250 248 252 256 259 259 262 268 268 268 270 273 276 275 271 274 273 271 272 275 267 260 256 250 246 246 246 243 236 229 231 236 233 228 227 230 233 236 234 233 234 236 238
251 254 250 245 246 252 260 266 269 269 268 268 269 270 270 270 275 276 276 271 272 269 264 256 252 253 252 248 243 239 239 234 231 230 228 229 234 237 238 239 241 242 242
254 257 258 253 249 249 253 259 262 265 265 265 265 266 266 263 266 269 270 273 275 274 275 266 262 262 266 259 251 247 242 236 230 229 226 230 235 238 239 240 241 241 241